Location: ??????
(55.2000°N, 38.3000°E)
Time: 07:34:46
(UTC+00:00)

NOSS 0 Rocket - Pass Details

Date: 15 November 2025
Orbit: 934 x 953 km, 70.0° (Epoch: 14 December)

Event Time Altitude Azimuth Distance (km) Brightness Sun altitude
Exits shadow 03:04:18 23° 265° (W) 1,873 4.9 -16.1°
Maximum altitude 03:07:39 42° 321° (NW) 1,322 4.4 -15.6°
Drops below altitude 10° 03:13:29 10° 32° (NNE) 2,668 6.6 -14.8°
Sets 03:16:12 0° 40° (NE) 3,618 7.4 -14.5°
